Time,TemperatureF,DewpointF,PressureIn,WindDirection,WindDirectionDegrees,WindSpeedMPH,WindSpeedGustMPH,Humidity,HourlyPrecipIn,Conditions,Clouds,dailyrainin,SoftwareType,DateUTC
2013-08-10 00:05:00,70.8,33.2,29.73,WNW,301,0.0,0.0,25,0.00,,,0.00,Wunderground v.1.15,2013-08-10 07:05:00,
2013-08-10 00:11:00,70.7,33.1,29.73,WNW,292,0.0,0.0,25,0.00,,,0.00,Wunderground v.1.15,2013-08-10 07:11:00,
2013-08-10 00:17:00,70.6,32.0,29.73,SW,230,0.0,0.0,24,0.00,,,0.00,Wunderground v.1.15,2013-08-10 07:17:00,
2013-08-10 00:23:00,70.4,31.9,29.73,West,273,0.0,0.0,24,0.00,,,0.00,Wunderground v.1.15,2013-08-10 07:23:00,
2013-08-10 00:29:00,70.2,31.7,29.73,West,267,0.0,0.0,24,0.00,,,0.00,Wunderground v.1.15,2013-08-10 07:29:00,
2013-08-10 00:35:00,70.1,31.6,29.73,West,262,0.0,0.0,24,0.00,,,0.00,Wunderground v.1.15,2013-08-10 07:35:00,
2013-08-10 00:41:00,70.2,31.7,29.73,WSW,254,0.0,0.0,24,0.00,,,0.00,Wunderground v.1.15,2013-08-10 07:41:00,
2013-08-10 00:47:00,70.0,31.5,29.74,WSW,245,0.0,0.0,24,0.00,,,0.00,Wunderground v.1.15,2013-08-10 07:47:00,
2013-08-10 00:53:00,70.0,31.5,29.74,WNW,285,0.0,0.0,24,0.00,,,0.00,Wunderground v.1.15,2013-08-10 07:53:00,
2013-08-10 00:59:00,69.9,31.4,29.74,WSW,237,0.0,0.0,24,0.00,,,0.00,Wunderground v.1.15,2013-08-10 07:59:00,
2013-08-10 01:05:00,69.9,31.4,29.74,SW,222,0.0,0.0,24,0.00,,,0.00,Wunderground v.1.15,2013-08-10 08:05:00,
2013-08-10 01:11:00,69.8,32.4,29.74,West,266,0.0,0.0,25,0.00,,,0.00,Wunderground v.1.15,2013-08-10 08:11:00,
2013-08-10 01:17:00,69.8,32.4,29.74,WNW,294,0.0,0.0,25,0.00,,,0.00,Wunderground v.1.15,2013-08-10 08:17:00,
2013-08-10 01:23:00,69.8,32.4,29.74,WNW,285,0.0,0.0,25,0.00,,,0.00,Wunderground v.1.15,2013-08-10 08:23:00,
2013-08-10 01:29:00,69.6,32.2,29.74,WSW,237,0.0,0.0,25,0.00,,,0.00,Wunderground v.1.15,2013-08-10 08:29:00,
2013-08-10 01:35:00,69.1,31.8,29.74,WSW,252,0.0,0.0,25,0.00,,,0.00,Wunderground v.1.15,2013-08-10 08:35:00,
2013-08-10 01:41:00,68.7,32.4,29.74,WSW,256,0.0,0.0,26,0.00,,,0.00,Wunderground v.1.15,2013-08-10 08:41:00,
2013-08-10 01:47:00,68.4,33.1,29.74,WSW,237,0.0,0.0,27,0.00,,,0.00,Wunderground v.1.15,2013-08-10 08:47:00,
2013-08-10 01:53:00,68.0,33.7,29.74,West,278,0.0,0.0,28,0.00,,,0.00,Wunderground v.1.15,2013-08-10 08:53:00,
2013-08-10 01:59:00,67.9,34.4,29.74,WSW,247,0.0,0.0,29,0.00,,,0.00,Wunderground v.1.15,2013-08-10 08:59:00,
2013-08-10 02:05:00,67.8,34.4,29.74,WNW,282,0.0,0.0,29,0.00,,,0.00,Wunderground v.1.15,2013-08-10 09:05:00,
2013-08-10 02:11:00,67.7,34.3,29.74,WSW,255,0.0,0.0,29,0.00,,,0.00,Wunderground v.1.15,2013-08-10 09:11:00,
2013-08-10 02:17:00,67.5,34.1,29.75,West,269,0.0,0.0,29,0.00,,,0.00,Wunderground v.1.15,2013-08-10 09:17:00,
2013-08-10 02:22:00,67.2,34.7,29.75,WSW,242,0.0,0.0,30,0.00,,,0.00,Wunderground v.1.15,2013-08-10 09:22:00,
2013-08-10 02:28:00,67.1,34.6,29.75,West,263,0.0,0.0,30,0.00,,,0.00,Wunderground v.1.15,2013-08-10 09:28:00,
2013-08-10 02:34:00,66.9,34.4,29.75,West,269,0.0,0.0,30,0.00,,,0.00,Wunderground v.1.15,2013-08-10 09:34:00,
2013-08-10 02:40:00,66.7,35.1,29.75,West,281,1.0,1.0,31,0.00,,,0.00,Wunderground v.1.15,2013-08-10 09:40:00,
2013-08-10 02:46:00,66.5,34.9,29.75,West,262,1.0,1.0,31,0.00,,,0.00,Wunderground v.1.15,2013-08-10 09:46:00,
2013-08-10 02:52:00,66.5,34.9,29.75,WNW,282,0.0,0.0,31,0.00,,,0.00,Wunderground v.1.15,2013-08-10 09:52:00,
2013-08-10 02:58:00,66.2,34.7,29.75,West,266,0.0,0.0,31,0.00,,,0.00,Wunderground v.1.15,2013-08-10 09:58:00,
2013-08-10 03:04:00,66.0,34.5,29.75,West,281,0.0,0.0,31,0.00,,,0.00,Wunderground v.1.15,2013-08-10 10:04:00,
2013-08-10 03:10:00,65.7,34.2,29.75,West,263,0.0,0.0,31,0.00,,,0.00,Wunderground v.1.15,2013-08-10 10:10:00,
2013-08-10 03:15:00,65.3,33.9,29.75,West,259,0.0,0.0,31,0.00,,,0.00,Wunderground v.1.15,2013-08-10 10:15:00,
2013-08-10 03:21:00,65.1,33.7,29.75,WSW,255,0.0,0.0,31,0.00,,,0.00,Wunderground v.1.15,2013-08-10 10:21:00,
2013-08-10 03:27:00,65.2,33.8,29.75,West,271,0.0,0.0,31,0.00,,,0.00,Wunderground v.1.15,2013-08-10 10:27:00,
2013-08-10 03:33:00,65.2,33.8,29.75,West,274,0.0,0.0,31,0.00,,,0.00,Wunderground v.1.15,2013-08-10 10:33:00,
2013-08-10 03:39:00,65.1,33.7,29.75,West,264,0.0,0.0,31,0.00,,,0.00,Wunderground v.1.15,2013-08-10 10:39:00,
2013-08-10 03:45:00,65.2,33.8,29.75,WNW,295,0.0,0.0,31,0.00,,,0.00,Wunderground v.1.15,2013-08-10 10:45:00,
2013-08-10 03:50:00,65.2,33.8,29.75,West,276,0.0,0.0,31,0.00,,,0.00,Wunderground v.1.15,2013-08-10 10:50:00,
2013-08-10 03:56:00,65.3,33.9,29.74,West,265,0.0,0.0,31,0.00,,,0.00,Wunderground v.1.15,2013-08-10 10:56:00,
2013-08-10 04:02:00,65.2,33.0,29.75,West,266,0.0,0.0,30,0.00,,,0.00,Wunderground v.1.15,2013-08-10 11:02:00,
2013-08-10 04:07:00,65.3,33.0,29.75,West,268,0.0,0.0,30,0.00,,,0.00,Wunderground v.1.15,2013-08-10 11:07:00,
2013-08-10 04:13:00,65.2,32.1,29.75,WNW,301,0.0,0.0,29,0.00,,,0.00,Wunderground v.1.15,2013-08-10 11:13:00,
2013-08-10 04:19:00,65.2,33.0,29.75,WSW,258,0.0,0.0,30,0.00,,,0.00,Wunderground v.1.15,2013-08-10 11:19:00,
2013-08-10 04:25:00,65.0,32.8,29.75,NW,310,0.0,0.0,30,0.00,,,0.00,Wunderground v.1.15,2013-08-10 11:25:00,
2013-08-10 04:31:00,64.9,33.5,29.75,WNW,291,0.0,0.0,31,0.00,,,0.00,Wunderground v.1.15,2013-08-10 11:31:00,
2013-08-10 04:37:00,64.7,33.3,29.75,West,267,0.0,0.0,31,0.00,,,0.00,Wunderground v.1.15,2013-08-10 11:37:00,
2013-08-10 04:43:00,64.6,34.1,29.75,West,278,0.0,0.0,32,0.00,,,0.00,Wunderground v.1.15,2013-08-10 11:43:00,
2013-08-10 04:49:00,64.3,33.8,29.75,WSW,243,0.0,0.0,32,0.00,,,0.00,Wunderground v.1.15,2013-08-10 11:49:00,
2013-08-10 04:54:00,64.1,33.6,29.76,West,266,0.0,0.0,32,0.00,,,0.00,Wunderground v.1.15,2013-08-10 11:54:00,
2013-08-10 05:00:00,63.8,34.1,29.75,NW,306,0.0,0.0,33,0.00,,,0.00,Wunderground v.1.15,2013-08-10 12:00:00,
2013-08-10 05:05:00,63.5,33.9,29.75,WNW,300,0.0,0.0,33,0.00,,,0.00,Wunderground v.1.15,2013-08-10 12:05:00,
2013-08-10 05:11:00,63.1,33.5,29.76,WSW,245,0.0,0.0,33,0.00,,,0.00,Wunderground v.1.15,2013-08-10 12:11:00,
2013-08-10 05:17:00,62.9,34.1,29.76,WNW,287,0.0,0.0,34,0.00,,,0.00,Wunderground v.1.15,2013-08-10 12:17:00,
2013-08-10 05:23:00,62.7,33.9,29.76,West,271,0.0,0.0,34,0.00,,,0.00,Wunderground v.1.15,2013-08-10 12:23:00,
2013-08-10 05:29:00,63.5,33.9,29.76,NW,305,0.0,0.0,33,0.00,,,0.00,Wunderground v.1.15,2013-08-10 12:29:00,
2013-08-10 05:35:00,63.3,33.7,29.77,WNW,294,0.0,0.0,33,0.00,,,0.00,Wunderground v.1.15,2013-08-10 12:35:00,
2013-08-10 05:41:00,64.1,33.6,29.77,NW,307,0.0,0.0,32,0.00,,,0.00,Wunderground v.1.15,2013-08-10 12:41:00,
2013-08-10 05:47:00,64.3,33.8,29.77,NW,326,0.0,0.0,32,0.00,,,0.00,Wunderground v.1.15,2013-08-10 12:47:00,
2013-08-10 05:53:00,64.4,33.9,29.77,West,281,0.0,0.0,32,0.00,,,0.00,Wunderground v.1.15,2013-08-10 12:53:00,
2013-08-10 05:59:00,63.9,33.4,29.77,NNW,328,0.0,0.0,32,0.00,,,0.00,Wunderground v.1.15,2013-08-10 12:59:00,
2013-08-10 06:05:00,63.2,33.6,29.78,West,278,0.0,0.0,33,0.00,,,0.00,Wunderground v.1.15,2013-08-10 13:05:00,
2013-08-10 06:11:00,62.7,33.9,29.78,NW,308,0.0,0.0,34,0.00,,,0.00,Wunderground v.1.15,2013-08-10 13:11:00,
2013-08-10 06:17:00,62.7,33.9,29.78,NW,315,0.0,0.0,34,0.00,,,0.00,Wunderground v.1.15,2013-08-10 13:17:00,
2013-08-10 06:23:00,62.9,34.1,29.78,NNW,347,0.0,0.0,34,0.00,,,0.00,Wunderground v.1.15,2013-08-10 13:23:00,
2013-08-10 06:29:00,63.0,34.2,29.78,West,276,0.0,0.0,34,0.00,,,0.00,Wunderground v.1.15,2013-08-10 13:29:00,
2013-08-10 06:35:00,63.4,34.5,29.79,WNW,284,0.0,0.0,34,0.00,,,0.00,Wunderground v.1.15,2013-08-10 13:35:00,
2013-08-10 06:41:00,63.9,35.0,29.79,WSW,255,0.0,0.0,34,0.00,,,0.00,Wunderground v.1.15,2013-08-10 13:41:00,
2013-08-10 06:46:00,64.1,35.1,29.79,WSW,250,1.0,2.0,34,0.00,,,0.00,Wunderground v.1.15,2013-08-10 13:46:00,
2013-08-10 06:52:00,64.0,35.0,29.79,WNW,291,1.0,1.0,34,0.00,,,0.00,Wunderground v.1.15,2013-08-10 13:52:00,
2013-08-10 06:58:00,63.8,35.6,29.79,WNW,287,0.0,1.0,35,0.00,,,0.00,Wunderground v.1.15,2013-08-10 13:58:00,
2013-08-10 07:03:00,64.9,35.8,29.80,West,280,0.0,0.0,34,0.00,,,0.00,Wunderground v.1.15,2013-08-10 14:03:00,
2013-08-10 07:09:00,65.4,36.3,29.80,WSW,250,0.0,0.0,34,0.00,,,0.00,Wunderground v.1.15,2013-08-10 14:09:00,
2013-08-10 07:15:00,65.8,35.9,29.80,West,263,0.0,0.0,33,0.00,,,0.00,Wunderground v.1.15,2013-08-10 14:15:00,
2013-08-10 07:21:00,66.3,35.5,29.80,WSW,244,0.0,0.0,32,0.00,,,0.00,Wunderground v.1.15,2013-08-10 14:21:00,
2013-08-10 07:27:00,66.7,35.1,29.80,WSW,240,0.0,0.0,31,0.00,,,0.00,Wunderground v.1.15,2013-08-10 14:27:00,
2013-08-10 07:33:00,67.0,35.3,29.80,SW,230,0.0,0.0,31,0.00,,,0.00,Wunderground v.1.15,2013-08-10 14:33:00,
2013-08-10 07:39:00,67.5,35.0,29.80,WSW,250,0.0,0.0,30,0.00,,,0.00,Wunderground v.1.15,2013-08-10 14:39:00,
2013-08-10 07:44:00,67.6,35.0,29.80,West,275,0.0,0.0,30,0.00,,,0.00,Wunderground v.1.15,2013-08-10 14:44:00,
2013-08-10 07:50:00,68.0,34.5,29.80,WSW,243,0.0,0.0,29,0.00,,,0.00,Wunderground v.1.15,2013-08-10 14:50:00,
2013-08-10 07:56:00,68.6,34.2,29.81,WSW,255,0.0,0.0,28,0.00,,,0.00,Wunderground v.1.15,2013-08-10 14:56:00,
2013-08-10 08:02:00,68.8,33.4,29.81,West,274,0.0,0.0,27,0.00,,,0.00,Wunderground v.1.15,2013-08-10 15:02:00,
2013-08-10 08:08:00,69.1,33.7,29.80,West,279,0.0,0.0,27,0.00,,,0.00,Wunderground v.1.15,2013-08-10 15:08:00,
2013-08-10 08:14:00,69.6,33.2,29.80,SW,226,0.0,0.0,26,0.00,,,0.00,Wunderground v.1.15,2013-08-10 15:14:00,
2013-08-10 08:20:00,70.1,32.6,29.81,West,272,0.0,0.0,25,0.00,,,0.00,Wunderground v.1.15,2013-08-10 15:20:00,
2013-08-10 08:26:00,70.6,32.0,29.81,WSW,256,0.0,0.0,24,0.00,,,0.00,Wunderground v.1.15,2013-08-10 15:26:00,
2013-08-10 08:32:00,71.2,32.5,29.81,WNW,285,0.0,0.0,24,0.00,,,0.00,Wunderground v.1.15,2013-08-10 15:32:00,
2013-08-10 08:38:00,71.4,30.5,29.81,West,281,0.0,0.0,22,0.00,,,0.00,Wunderground v.1.15,2013-08-10 15:38:00,
2013-08-10 08:44:00,71.7,30.8,29.81,WSW,256,0.0,0.0,22,0.00,,,0.00,Wunderground v.1.15,2013-08-10 15:44:00,
2013-08-10 08:50:00,72.2,31.2,29.81,WSW,241,0.0,0.0,22,0.00,,,0.00,Wunderground v.1.15,2013-08-10 15:50:00,
2013-08-10 08:56:00,72.2,28.9,29.81,WSW,237,0.0,0.0,20,0.00,,,0.00,Wunderground v.1.15,2013-08-10 15:56:00,
2013-08-10 09:02:00,72.2,30.1,29.81,West,264,0.0,0.0,21,0.00,,,0.00,Wunderground v.1.15,2013-08-10 16:02:00,
2013-08-10 09:08:00,72.4,30.2,29.81,SW,229,0.0,0.0,21,0.00,,,0.00,Wunderground v.1.15,2013-08-10 16:08:00,
2013-08-10 09:14:00,73.1,29.6,29.81,WNW,283,0.0,0.0,20,0.00,,,0.00,Wunderground v.1.15,2013-08-10 16:14:00,
2013-08-10 09:20:00,73.6,28.8,29.81,NNW,335,0.0,0.0,19,0.00,,,0.00,Wunderground v.1.15,2013-08-10 16:20:00,
2013-08-10 09:26:00,73.6,28.8,29.81,WSW,247,0.0,0.0,19,0.00,,,0.00,Wunderground v.1.15,2013-08-10 16:26:00,
2013-08-10 09:32:00,73.8,30.2,29.81,WSW,252,0.0,0.0,20,0.00,,,0.00,Wunderground v.1.15,2013-08-10 16:32:00,
2013-08-10 09:38:00,74.3,29.3,29.81,West,262,0.0,0.0,19,0.00,,,0.00,Wunderground v.1.15,2013-08-10 16:38:00,
2013-08-10 09:44:00,73.9,29.0,29.81,NNW,330,0.0,0.0,19,0.00,,,0.00,Wunderground v.1.15,2013-08-10 16:44:00,
2013-08-10 09:49:00,73.9,26.3,29.81,WSW,257,0.0,0.0,17,0.00,,,0.00,Wunderground v.1.15,2013-08-10 16:49:00,
2013-08-10 09:55:00,73.9,26.3,29.80,WSW,252,0.0,0.0,17,0.00,,,0.00,Wunderground v.1.15,2013-08-10 16:55:00,
2013-08-10 10:00:00,74.0,27.8,29.81,West,266,0.0,0.0,18,0.00,,,0.00,Wunderground v.1.15,2013-08-10 17:00:00,
2013-08-10 10:06:00,74.1,29.2,29.81,WNW,287,0.0,0.0,19,0.00,,,0.00,Wunderground v.1.15,2013-08-10 17:06:00,
2013-08-10 10:12:00,74.2,30.5,29.80,WSW,251,0.0,0.0,20,0.00,,,0.00,Wunderground v.1.15,2013-08-10 17:12:00,
2013-08-10 10:18:00,75.0,28.6,29.81,West,260,0.0,0.0,18,0.00,,,0.00,Wunderground v.1.15,2013-08-10 17:18:00,
2013-08-10 10:24:00,74.4,29.4,29.81,NW,315,0.0,0.0,19,0.00,,,0.00,Wunderground v.1.15,2013-08-10 17:24:00,
2013-08-10 10:30:00,74.6,29.6,29.80,WNW,292,0.0,0.0,19,0.00,,,0.00,Wunderground v.1.15,2013-08-10 17:30:00,
2013-08-10 10:36:00,75.5,29.0,29.81,West,271,0.0,0.0,18,0.00,,,0.00,Wunderground v.1.15,2013-08-10 17:36:00,
2013-08-10 10:42:00,75.1,28.7,29.80,WSW,247,0.0,0.0,18,0.00,,,0.00,Wunderground v.1.15,2013-08-10 17:42:00,
2013-08-10 10:47:00,75.3,27.4,29.81,SW,222,0.0,0.0,17,0.00,,,0.00,Wunderground v.1.15,2013-08-10 17:47:00,
2013-08-10 10:53:00,76.4,28.3,29.80,SSW,206,0.0,0.0,17,0.00,,,0.00,Wunderground v.1.15,2013-08-10 17:53:00,
2013-08-10 10:58:00,77.2,29.0,29.80,SSE,163,0.0,0.0,17,0.00,,,0.00,Wunderground v.1.15,2013-08-10 17:58:00,
2013-08-10 11:04:00,77.2,29.0,29.80,SSE,160,0.0,0.0,17,0.00,,,0.00,Wunderground v.1.15,2013-08-10 18:04:00,
2013-08-10 11:10:00,78.0,28.1,29.80,West,268,0.0,0.0,16,0.00,,,0.00,Wunderground v.1.15,2013-08-10 18:10:00,
2013-08-10 11:16:00,77.2,27.5,29.80,WSW,247,0.0,0.0,16,0.00,,,0.00,Wunderground v.1.15,2013-08-10 18:16:00,
2013-08-10 11:20:00,76.9,27.3,29.80,WNW,285,0.0,0.0,16,0.00,,,0.00,Wunderground v.1.15,2013-08-10 18:20:00,
2013-08-10 11:26:00,76.6,27.0,29.80,WSW,238,0.0,0.0,16,0.00,,,0.00,Wunderground v.1.15,2013-08-10 18:26:00,
2013-08-10 11:32:00,76.9,28.7,29.80,West,279,0.0,0.0,17,0.00,,,0.00,Wunderground v.1.15,2013-08-10 18:32:00,
2013-08-10 11:37:00,77.2,27.5,29.79,ESE,116,0.0,0.0,16,0.00,,,0.00,Wunderground v.1.15,2013-08-10 18:37:00,
2013-08-10 11:43:00,76.9,28.7,29.79,South,184,0.0,0.0,17,0.00,,,0.00,Wunderground v.1.15,2013-08-10 18:43:00,
2013-08-10 11:49:00,77.5,29.2,29.79,SSW,212,0.0,0.0,17,0.00,,,0.00,Wunderground v.1.15,2013-08-10 18:49:00,
2013-08-10 11:55:00,78.1,29.7,29.79,ESE,108,0.0,0.0,17,0.00,,,0.00,Wunderground v.1.15,2013-08-10 18:55:00,
2013-08-10 12:00:00,77.6,29.3,29.79,East,97,0.0,0.0,17,0.00,,,0.00,Wunderground v.1.15,2013-08-10 19:00:00,
2013-08-10 12:06:00,77.9,29.5,29.79,SSW,196,0.0,0.0,17,0.00,,,0.00,Wunderground v.1.15,2013-08-10 19:06:00,
2013-08-10 12:12:00,78.6,30.1,29.79,WNW,284,0.0,0.0,17,0.00,,,0.00,Wunderground v.1.15,2013-08-10 19:12:00,
2013-08-10 12:18:00,78.5,30.0,29.78,South,184,0.0,0.0,17,0.00,,,0.00,Wunderground v.1.15,2013-08-10 19:18:00,
2013-08-10 12:24:00,79.9,29.7,29.78,ESE,107,0.0,0.0,16,0.00,,,0.00,Wunderground v.1.15,2013-08-10 19:24:00,
2013-08-10 12:29:00,79.4,29.3,29.78,East,89,0.0,0.0,16,0.00,,,0.00,Wunderground v.1.15,2013-08-10 19:29:00,
2013-08-10 12:35:00,79.7,29.5,29.78,SE,142,0.0,0.0,16,0.00,,,0.00,Wunderground v.1.15,2013-08-10 19:35:00,
2013-08-10 12:41:00,80.9,28.9,29.78,SW,224,0.0,0.0,15,0.00,,,0.00,Wunderground v.1.15,2013-08-10 19:41:00,
2013-08-10 12:47:00,80.3,28.4,29.77,SE,138,0.0,0.0,15,0.00,,,0.00,Wunderground v.1.15,2013-08-10 19:47:00,
2013-08-10 12:53:00,81.0,27.3,29.77,East,98,0.0,0.0,14,0.00,,,0.00,Wunderground v.1.15,2013-08-10 19:53:00,
2013-08-10 12:59:00,81.2,25.7,29.77,ESE,107,0.0,0.0,13,0.00,,,0.00,Wunderground v.1.15,2013-08-10 19:59:00,
2013-08-10 13:05:00,81.3,27.5,29.77,SSE,162,0.0,0.0,14,0.00,,,0.00,Wunderground v.1.15,2013-08-10 20:05:00,
2013-08-10 13:11:00,81.8,27.9,29.77,SSE,165,0.0,0.0,14,0.00,,,0.00,Wunderground v.1.15,2013-08-10 20:11:00,
2013-08-10 13:17:00,82.3,22.5,29.77,WSW,244,0.0,0.0,11,0.00,,,0.00,Wunderground v.1.15,2013-08-10 20:17:00,
2013-08-10 13:23:00,82.0,22.3,29.76,WSW,247,0.0,0.0,11,0.00,,,0.00,Wunderground v.1.15,2013-08-10 20:23:00,
2013-08-10 13:29:00,81.6,24.0,29.76,WNW,294,0.0,0.0,12,0.00,,,0.00,Wunderground v.1.15,2013-08-10 20:29:00,
2013-08-10 13:35:00,81.7,24.1,29.76,SSW,207,0.0,0.0,12,0.00,,,0.00,Wunderground v.1.15,2013-08-10 20:35:00,
2013-08-10 13:41:00,82.0,24.4,29.75,ESE,108,0.0,0.0,12,0.00,,,0.00,Wunderground v.1.15,2013-08-10 20:41:00,
2013-08-10 13:46:00,81.1,25.6,29.75,ESE,121,0.0,0.0,13,0.00,,,0.00,Wunderground v.1.15,2013-08-10 20:46:00,
2013-08-10 13:52:00,81.6,26.0,29.75,SSW,197,0.0,0.0,13,0.00,,,0.00,Wunderground v.1.15,2013-08-10 20:52:00,
2013-08-10 13:58:00,82.5,24.7,29.75,SE,135,0.0,0.0,12,0.00,,,0.00,Wunderground v.1.15,2013-08-10 20:58:00,
2013-08-10 14:04:00,81.5,24.0,29.75,SSE,162,0.0,0.0,12,0.00,,,0.00,Wunderground v.1.15,2013-08-10 21:04:00,
2013-08-10 14:10:00,82.5,24.7,29.75,SSW,204,0.0,0.0,12,0.00,,,0.00,Wunderground v.1.15,2013-08-10 21:10:00,
2013-08-10 14:15:00,82.7,24.9,29.75,ESE,117,0.0,0.0,12,0.00,,,0.00,Wunderground v.1.15,2013-08-10 21:15:00,
2013-08-10 14:21:00,83.2,25.3,29.75,SSE,150,0.0,0.0,12,0.00,,,0.00,Wunderground v.1.15,2013-08-10 21:21:00,
2013-08-10 14:27:00,83.0,25.1,29.74,SW,221,0.0,0.0,12,0.00,,,0.00,Wunderground v.1.15,2013-08-10 21:27:00,
2013-08-10 14:33:00,83.0,25.1,29.74,SE,128,0.0,0.0,12,0.00,,,0.00,Wunderground v.1.15,2013-08-10 21:33:00,
2013-08-10 14:38:00,83.5,25.5,29.74,SSE,168,0.0,0.0,12,0.00,,,0.00,Wunderground v.1.15,2013-08-10 21:38:00,
2013-08-10 14:44:00,83.6,23.5,29.74,East,97,0.0,0.0,11,0.00,,,0.00,Wunderground v.1.15,2013-08-10 21:44:00,
2013-08-10 14:49:00,83.9,23.7,29.74,SW,223,0.0,0.0,11,0.00,,,0.00,Wunderground v.1.15,2013-08-10 21:49:00,
2013-08-10 14:55:00,84.5,21.9,29.73,SSE,165,0.0,0.0,10,0.00,,,0.00,Wunderground v.1.15,2013-08-10 21:55:00,
2013-08-10 15:00:00,85.2,22.5,29.73,South,184,0.0,0.0,10,0.00,,,0.00,Wunderground v.1.15,2013-08-10 22:00:00,
2013-08-10 15:06:00,85.1,22.4,29.73,SW,214,0.0,0.0,10,0.00,,,0.00,Wunderground v.1.15,2013-08-10 22:06:00,
2013-08-10 15:12:00,85.0,22.3,29.73,SSE,162,0.0,0.0,10,0.00,,,0.00,Wunderground v.1.15,2013-08-10 22:12:00,
2013-08-10 15:18:00,85.1,22.4,29.72,South,180,0.0,0.0,10,0.00,,,0.00,Wunderground v.1.15,2013-08-10 22:18:00,
2013-08-10 15:24:00,85.0,22.3,29.72,SSW,212,0.0,0.0,10,0.00,,,0.00,Wunderground v.1.15,2013-08-10 22:24:00,
2013-08-10 15:30:00,85.0,19.8,29.72,SW,230,0.0,0.0,9,0.00,,,0.00,Wunderground v.1.15,2013-08-10 22:30:00,
2013-08-10 15:36:00,85.5,20.2,29.72,SSW,210,0.0,0.0,9,0.00,,,0.00,Wunderground v.1.15,2013-08-10 22:36:00,
2013-08-10 15:42:00,85.5,20.2,29.72,SSW,206,0.0,0.0,9,0.00,,,0.00,Wunderground v.1.15,2013-08-10 22:42:00,
2013-08-10 15:48:00,85.6,20.3,29.72,SSW,205,0.0,0.0,9,0.00,,,0.00,Wunderground v.1.15,2013-08-10 22:48:00,
2013-08-10 15:54:00,85.6,22.8,29.71,SW,219,0.0,0.0,10,0.00,,,0.00,Wunderground v.1.15,2013-08-10 22:54:00,
2013-08-10 16:00:00,85.7,22.8,29.71,SSW,193,0.0,0.0,10,0.00,,,0.00,Wunderground v.1.15,2013-08-10 23:00:00,
2013-08-10 16:06:00,86.3,20.8,29.70,SSE,161,0.0,0.0,9,0.00,,,0.00,Wunderground v.1.15,2013-08-10 23:06:00,
2013-08-10 16:11:00,86.4,20.9,29.71,SSW,210,0.0,0.0,9,0.00,,,0.00,Wunderground v.1.15,2013-08-10 23:11:00,
2013-08-10 16:17:00,85.9,20.5,29.70,SW,229,0.0,0.0,9,0.00,,,0.00,Wunderground v.1.15,2013-08-10 23:17:00,
2013-08-10 16:23:00,85.6,20.3,29.71,WSW,246,0.0,0.0,9,0.00,,,0.00,Wunderground v.1.15,2013-08-10 23:23:00,
2013-08-10 16:28:00,85.5,20.2,29.70,West,262,0.0,0.0,9,0.00,,,0.00,Wunderground v.1.15,2013-08-10 23:28:00,
2013-08-10 16:34:00,85.6,20.3,29.70,West,263,0.0,0.0,9,0.00,,,0.00,Wunderground v.1.15,2013-08-10 23:34:00,
2013-08-10 16:40:00,85.1,22.4,29.70,West,278,0.0,0.0,10,0.00,,,0.00,Wunderground v.1.15,2013-08-10 23:40:00,
2013-08-10 16:46:00,85.1,19.9,29.70,WNW,299,0.0,0.0,9,0.00,,,0.00,Wunderground v.1.15,2013-08-10 23:46:00,
2013-08-10 16:52:00,85.2,20.0,29.70,NNE,23,0.0,0.0,9,0.00,,,0.00,Wunderground v.1.15,2013-08-10 23:52:00,
2013-08-10 16:58:00,85.0,22.3,29.70,West,269,0.0,0.0,10,0.00,,,0.00,Wunderground v.1.15,2013-08-10 23:58:00,
2013-08-10 17:04:00,85.5,20.2,29.70,WNW,299,0.0,0.0,9,0.00,,,0.00,Wunderground v.1.15,2013-08-11 00:04:00,
2013-08-10 17:10:00,85.1,19.9,29.70,NNW,336,0.0,0.0,9,0.00,,,0.00,Wunderground v.1.15,2013-08-11 00:10:00,
2013-08-10 17:16:00,85.1,19.9,29.70,NE,39,0.0,0.0,9,0.00,,,0.00,Wunderground v.1.15,2013-08-11 00:16:00,
2013-08-10 17:22:00,84.8,22.2,29.70,NW,304,0.0,0.0,10,0.00,,,0.00,Wunderground v.1.15,2013-08-11 00:22:00,
2013-08-10 17:27:00,85.0,22.3,29.70,NNW,346,0.0,0.0,10,0.00,,,0.00,Wunderground v.1.15,2013-08-11 00:27:00,
2013-08-10 17:33:00,85.5,20.2,29.70,NW,322,0.0,0.0,9,0.00,,,0.00,Wunderground v.1.15,2013-08-11 00:33:00,
2013-08-10 17:38:00,85.1,19.9,29.70,North,353,0.0,0.0,9,0.00,,,0.00,Wunderground v.1.15,2013-08-11 00:38:00,
2013-08-10 17:44:00,85.0,19.8,29.69,NNE,15,0.0,0.0,9,0.00,,,0.00,Wunderground v.1.15,2013-08-11 00:44:00,
2013-08-10 17:50:00,84.8,19.7,29.69,NNE,23,0.0,0.0,9,0.00,,,0.00,Wunderground v.1.15,2013-08-11 00:50:00,
2013-08-10 17:56:00,84.9,19.7,29.69,NNE,21,0.0,0.0,9,0.00,,,0.00,Wunderground v.1.15,2013-08-11 00:56:00,
2013-08-10 18:02:00,84.8,19.7,29.69,North,349,0.0,0.0,9,0.00,,,0.00,Wunderground v.1.15,2013-08-11 01:02:00,
2013-08-10 18:08:00,84.6,19.5,29.69,WNW,288,0.0,0.0,9,0.00,,,0.00,Wunderground v.1.15,2013-08-11 01:08:00,
2013-08-10 18:13:00,84.6,19.5,29.68,North,349,0.0,0.0,9,0.00,,,0.00,Wunderground v.1.15,2013-08-11 01:13:00,
2013-08-10 18:19:00,84.5,19.4,29.68,NNE,31,0.0,0.0,9,0.00,,,0.00,Wunderground v.1.15,2013-08-11 01:19:00,
2013-08-10 18:25:00,84.2,19.2,29.68,East,84,0.0,0.0,9,0.00,,,0.00,Wunderground v.1.15,2013-08-11 01:25:00,
2013-08-10 18:31:00,84.5,19.4,29.68,NNW,338,0.0,0.0,9,0.00,,,0.00,Wunderground v.1.15,2013-08-11 01:31:00,
2013-08-10 18:37:00,85.3,17.3,29.69,WNW,287,0.0,0.0,8,0.00,,,0.00,Wunderground v.1.15,2013-08-11 01:37:00,
2013-08-10 18:43:00,85.1,17.1,29.69,West,280,0.0,0.0,8,0.00,,,0.00,Wunderground v.1.15,2013-08-11 01:43:00,
2013-08-10 18:49:00,84.8,19.7,29.68,WNW,299,0.0,0.0,9,0.00,,,0.00,Wunderground v.1.15,2013-08-11 01:49:00,
2013-08-10 18:54:00,84.6,19.5,29.69,West,259,0.0,0.0,9,0.00,,,0.00,Wunderground v.1.15,2013-08-11 01:54:00,
2013-08-10 19:00:00,84.7,19.6,29.69,West,264,0.0,0.0,9,0.00,,,0.00,Wunderground v.1.15,2013-08-11 02:00:00,
2013-08-10 19:06:00,84.8,19.7,29.69,WNW,290,0.0,0.0,9,0.00,,,0.00,Wunderground v.1.15,2013-08-11 02:06:00,
2013-08-10 19:12:00,84.5,19.4,29.69,WNW,283,0.0,0.0,9,0.00,,,0.00,Wunderground v.1.15,2013-08-11 02:12:00,
2013-08-10 19:18:00,84.4,19.4,29.69,West,269,0.0,0.0,9,0.00,,,0.00,Wunderground v.1.15,2013-08-11 02:18:00,
2013-08-10 19:24:00,83.8,18.9,29.69,West,276,0.0,0.0,9,0.00,,,0.00,Wunderground v.1.15,2013-08-11 02:24:00,
2013-08-10 19:30:00,83.1,20.9,29.70,NNW,343,0.0,0.0,10,0.00,,,0.00,Wunderground v.1.15,2013-08-11 02:30:00,
2013-08-10 19:36:00,82.1,22.4,29.70,West,265,0.0,0.0,11,0.00,,,0.00,Wunderground v.1.15,2013-08-11 02:36:00,
2013-08-10 19:42:00,81.2,21.7,29.70,North,352,0.0,0.0,11,0.00,,,0.00,Wunderground v.1.15,2013-08-11 02:42:00,
2013-08-10 19:48:00,80.5,23.2,29.70,WSW,258,0.0,0.0,12,0.00,,,0.00,Wunderground v.1.15,2013-08-11 02:48:00,
2013-08-10 19:53:00,80.1,24.8,29.70,SE,136,0.0,0.0,13,-99.99,,,0.00,Wunderground v.1.15,2013-08-11 02:53:00,
2013-08-10 20:01:00,80.6,30.2,29.71,NNW,332,0.0,0.0,16,0.39,,,0.15,Wunderground v.1.15,2013-08-11 03:01:00,
2013-08-10 20:07:00,83.3,29.1,29.71,South,189,0.0,0.0,14,0.74,,,0.21,Wunderground v.1.15,2013-08-11 03:07:00,
2013-08-10 20:13:00,82.2,26.4,29.71,WSW,257,2.0,16.0,13,0.16,,,0.22,Wunderground v.1.15,2013-08-11 03:13:00,
2013-08-10 20:19:00,79.5,27.8,29.72,West,276,8.0,16.0,15,0.07,,,0.22,Wunderground v.1.15,2013-08-11 03:19:00,
2013-08-10 20:24:00,78.4,30.0,29.71,WNW,289,11.0,17.0,17,0.04,,,0.22,Wunderground v.1.15,2013-08-11 03:24:00,
2013-08-10 20:30:00,77.6,29.3,29.72,South,171,10.0,10.0,17,0.00,,,0.22,Wunderground v.1.15,2013-08-11 03:30:00,
2013-08-10 20:36:00,77.1,30.3,29.72,WNW,288,10.0,15.0,18,0.00,,,0.22,Wunderground v.1.15,2013-08-11 03:36:00,
2013-08-10 20:42:00,76.7,30.0,29.72,West,278,9.0,9.0,18,0.00,,,0.22,Wunderground v.1.15,2013-08-11 03:42:00,
2013-08-10 20:48:00,76.3,31.0,29.73,North,359,8.0,16.0,19,0.00,,,0.22,Wunderground v.1.15,2013-08-11 03:48:00,
2013-08-10 20:54:00,76.0,30.7,29.73,West,273,8.0,10.0,19,0.00,,,0.22,Wunderground v.1.15,2013-08-11 03:54:00,
2013-08-10 21:00:00,75.8,31.8,29.73,West,260,8.0,11.0,20,0.00,,,0.22,Wunderground v.1.15,2013-08-11 04:00:00,
2013-08-10 21:01:00,75.7,31.8,29.73,WNW,293,8.0,11.0,20,0.00,,,0.22,Wunderground v.1.15,2013-08-11 04:01:00,
2013-08-10 21:03:00,75.6,31.7,29.73,WSW,256,8.0,11.0,20,0.00,,,0.22,Wunderground v.1.15,2013-08-11 04:03:00,
2013-08-10 21:04:00,75.5,31.6,29.73,WSW,253,8.0,11.0,20,0.00,,,0.22,Wunderground v.1.15,2013-08-11 04:04:00,
2013-08-10 21:05:00,75.5,31.6,29.73,WNW,284,8.0,11.0,20,0.00,,,0.22,Wunderground v.1.15,2013-08-11 04:05:00,
2013-08-10 21:08:00,75.3,31.4,29.73,West,273,8.0,13.0,20,0.00,,,0.22,Wunderground v.1.15,2013-08-11 04:08:00,
2013-08-10 21:14:00,75.0,31.2,29.74,West,262,7.0,9.0,20,0.00,,,0.22,Wunderground v.1.15,2013-08-11 04:14:00,
2013-08-10 21:20:00,74.8,32.2,29.74,WNW,288,8.0,14.0,21,0.00,,,0.22,Wunderground v.1.15,2013-08-11 04:20:00,
2013-08-10 21:25:00,74.7,32.1,29.74,West,259,9.0,14.0,21,0.00,,,0.22,Wunderground v.1.15,2013-08-11 04:25:00,
2013-08-10 21:31:00,74.7,32.1,29.75,WNW,288,10.0,11.0,21,0.00,,,0.22,Wunderground v.1.15,2013-08-11 04:31:00,
2013-08-10 21:37:00,74.5,32.0,29.75,West,264,10.0,13.0,21,0.00,,,0.22,Wunderground v.1.15,2013-08-11 04:37:00,
2013-08-10 21:43:00,74.2,32.9,29.75,West,271,10.0,11.0,22,0.00,,,0.22,Wunderground v.1.15,2013-08-11 04:43:00,
2013-08-10 21:49:00,74.0,31.6,29.75,West,266,10.0,12.0,21,0.00,,,0.22,Wunderground v.1.15,2013-08-11 04:49:00,
2013-08-10 21:55:00,73.8,31.4,29.76,WSW,255,9.0,10.0,21,0.00,,,0.22,Wunderground v.1.15,2013-08-11 04:55:00,
2013-08-10 22:00:00,73.6,32.4,29.76,WSW,258,9.0,9.0,22,0.00,,,0.22,Wunderground v.1.15,2013-08-11 05:00:00,
2013-08-10 22:05:00,73.3,32.1,29.76,West,266,8.0,14.0,22,0.00,,,0.22,Wunderground v.1.15,2013-08-11 05:05:00,
2013-08-10 22:11:00,72.8,31.7,29.76,WNW,290,6.0,6.0,22,0.00,,,0.22,Wunderground v.1.15,2013-08-11 05:11:00,
2013-08-10 22:16:00,72.4,31.4,29.76,NW,305,5.0,6.0,22,0.00,,,0.22,Wunderground v.1.15,2013-08-11 05:16:00,
2013-08-10 22:22:00,72.4,32.5,29.76,West,278,5.0,6.0,23,0.00,,,0.22,Wunderground v.1.15,2013-08-11 05:22:00,
2013-08-10 22:28:00,71.8,32.0,29.76,SSW,195,5.0,8.0,23,0.00,,,0.22,Wunderground v.1.15,2013-08-11 05:28:00,
2013-08-10 22:34:00,71.9,32.1,29.77,WSW,255,7.0,11.0,23,0.00,,,0.22,Wunderground v.1.15,2013-08-11 05:34:00,
2013-08-10 22:39:00,71.8,30.9,29.77,West,281,8.0,12.0,22,0.00,,,0.22,Wunderground v.1.15,2013-08-11 05:39:00,
2013-08-10 22:45:00,71.7,30.8,29.77,WSW,243,9.0,10.0,22,0.00,,,0.22,Wunderground v.1.15,2013-08-11 05:45:00,
2013-08-10 22:51:00,71.9,31.0,29.78,West,265,9.0,9.0,22,0.00,,,0.22,Wunderground v.1.15,2013-08-11 05:51:00,
2013-08-10 22:58:00,71.7,29.7,29.78,West,274,9.0,13.0,21,0.00,,,0.22,Wunderground v.1.15,2013-08-11 05:58:00,
2013-08-10 23:03:00,71.7,29.7,29.78,West,265,8.0,9.0,21,0.00,,,0.22,Wunderground v.1.15,2013-08-11 06:03:00,
2013-08-10 23:09:00,71.2,29.2,29.78,WNW,288,6.0,9.0,21,0.00,,,0.22,Wunderground v.1.15,2013-08-11 06:09:00,
2013-08-10 23:16:00,71.0,29.1,29.78,West,261,6.0,9.0,21,0.00,,,0.22,Wunderground v.1.15,2013-08-11 06:16:00,
2013-08-10 23:22:00,70.2,29.5,29.78,West,259,4.0,5.0,22,0.00,,,0.22,Wunderground v.1.15,2013-08-11 06:22:00,
2013-08-10 23:28:00,69.9,29.3,29.79,West,263,4.0,7.0,22,0.00,,,0.22,Wunderground v.1.15,2013-08-11 06:28:00,
2013-08-10 23:34:00,69.9,29.3,29.79,West,276,6.0,9.0,22,0.00,,,0.22,Wunderground v.1.15,2013-08-11 06:34:00,
2013-08-10 23:40:00,69.8,29.2,29.79,West,278,7.0,8.0,22,0.00,,,0.22,Wunderground v.1.15,2013-08-11 06:40:00,
2013-08-10 23:47:00,69.7,29.1,29.79,WSW,247,9.0,11.0,22,0.00,,,0.22,Wunderground v.1.15,2013-08-11 06:47:00,
2013-08-10 23:52:00,69.6,29.0,29.79,WSW,255,9.0,10.0,22,0.00,,,0.22,Wunderground v.1.15,2013-08-11 06:52:00,
2013-08-10 23:58:00,69.6,29.0,29.79,West,268,9.0,11.0,22,0.00,,,0.22,Wunderground v.1.15,2013-08-11 06:58:00,